This is the latest recevied weather packets stored in our database for station/object DO7CRZ-12. If no packets are shown the sender has not sent any weather packets the latest 10 day(s).
| Time | Temp. | Humidity | Pressure | Rain* | Wind** | Luminosity | Snow |
|---|---|---|---|---|---|---|---|
| 1777686445 | 10.56° C | 65% | 1024.8 hPa | 0 mm | - | 0 W/m² | - |
| 1777685842 | 10.56° C | 64% | 1024.8 hPa | 0 mm | - | 0 W/m² | - |
| 1777685239 | 11.11° C | 63% | 1024.8 hPa | 0 mm | - | 0 W/m² | - |
| 1777684636 | 11.11° C | 63% | 1024.9 hPa | 0 mm | - | 0 W/m² | - |
| 1777684048 | 11.11° C | 62% | 1024.8 hPa | 0 mm | - | 0 W/m² | - |
| 1777683445 | 11.11° C | 62% | 1025.1 hPa | 0 mm | - | 0 W/m² | - |
| 1777682843 | 11.11° C | 62% | 1025 hPa | 0 mm | - | 0 W/m² | - |
| 1777682240 | 11.11° C | 62% | 1025.1 hPa | 0 mm | - | 0 W/m² | - |
| 1777681637 | 11.67° C | 61% | 1025 hPa | 0 mm | - | 0 W/m² | - |
| 1777681049 | 11.67° C | 61% | 1025.1 hPa | 0 mm | - | 0 W/m² | - |
| 1777680447 | 11.67° C | 60% | 1025.1 hPa | 0 mm | - | 0 W/m² | - |
| 1777679843 | 12.22° C | 57% | 1025.2 hPa | 0 mm | - | 0 W/m² | - |
| 1777679241 | 12.78° C | 54% | 1025.2 hPa | 0 mm | - | 0 W/m² | - |
| 1777678638 | 13.33° C | 52% | 1025.3 hPa | 0 mm | - | 0 W/m² | - |
| 1777678035 | 13.33° C | 51% | 1025.3 hPa | 0 mm | - | 0 W/m² | - |
| 1777677448 | 13.33° C | 51% | 1025.4 hPa | 0 mm | - | 0 W/m² | - |
| 1777676844 | 13.33° C | 53% | 1025.4 hPa | 0 mm | - | 0 W/m² | - |
| 1777676242 | 13.33° C | 52% | 1025.4 hPa | 0 mm | - | 0 W/m² | - |
| 1777675639 | 13.89° C | 48% | 1025.4 hPa | 0 mm | - | 0 W/m² | - |
| 1777675036 | 14.44° C | 45% | 1025.4 hPa | 0 mm | - | 0 W/m² | - |
| 1777674449 | 15° C | 45% | 1025.4 hPa | 0 mm | - | 0 W/m² | - |
| 1777673846 | 15° C | 43% | 1025.5 hPa | 0 mm | - | 0 W/m² | - |
| 1777673243 | 15.56° C | 41% | 1025.6 hPa | 0 mm | - | 0 W/m² | - |
| 1777672640 | 15.56° C | 40% | 1025.6 hPa | 0 mm | - | 0 W/m² | - |
| 1777672037 | 15.56° C | 41% | 1025.5 hPa | 0 mm | - | 0 W/m² | - |
* Rain latest hour (hover to see other rain measurements)
** Current wind speed in m/s (hover to see current wind gust speed)